Marianna, FL

9:28 PM CDT on October 19, 2017 (GMT -0500)
Marianna Municipal

Weather History for KMAI - January, 2012

Change the Weather History Date:

Friday, January 6, 2012

  Actual Average Record
Temperature  
Mean Temperature 56 °F 50 °F  
Max Temperature 69 °F 61 °F 77 °F (2009)
Min Temperature 42 °F 38 °F 21 °F (1999)
Degree Days  
Heating Degree Days 10    
Month to date heating degree days  
Since 1 July heating degree days  
Cooling Degree Days 0    
Month to date cooling degree days  
Year to date cooling degree days  
Growing Degree Days 6 (Base 50)    
Moisture  
Dew Point 47 °F    
Average Humidity 88    
Maximum Humidity 100    
Minimum Humidity 49    
Precipitation  
Precipitation 0.01 in 0.18 in 0.63 in (2017)
Month to date precipitation 1.05  
Year to date precipitation 1.05  
Sea Level Pressure  
Sea Level Pressure 30.15 in    
Wind  
Wind Speed 1 mph (West)    
Max Wind Speed 10 mph    
Max Gust Speed -    
Visibility 5 miles    
Events Fog    
T = Trace of Precipitation, MM = Missing Value Source: NWS Daily Summary

Daily Weather History Graph

Daily Weather History Graph

Search for Another Location

Airport or City:

Trip Planner

Search our weather history database for the weather conditions in past years. The results will help you decide how hot, cold, wet, or windy it might be!

Date:

Astronomy

Jan. 06, 2012 Rise Set
Actual Time 6:39 AM CST 4:53 PM CST
Civil Twilight 6:12 AM CST 5:20 PM CST
Nautical Twilight 5:43 AM CST 5:50 PM CST
Astronomical Twilight 5:13 AM CST 6:19 PM CST
Moon 2:45 PM CST (1/6) 4:17 AM CST (1/6)
Length of Visible Light 11h 07m
Length of Day
10h 14m
Waxing Gibbous, 93% of the Moon is Illuminated
Jan 6
Waxing Gibbous
Jan 9
Full
Jan 16
Last Quarter
Jan 23
New
Jan 30
First Quarter

Hourly Weather History & Observations

Time (CST) Temp. Dew Point Humidity Pressure Visibility Wind Dir Wind Speed Gust Speed Precip Events Conditions
12:20 AM 42.8 °F 39.2 °F 87% 30.17 in 10.0 mi Calm Calm - N/A   Mostly Cloudy
12:33 AM 42.8 °F 39.2 °F 87% 30.17 in 10.0 mi Calm Calm - N/A   Mostly Cloudy
12:49 AM 42.8 °F 41.0 °F 93% 30.17 in 1.5 mi Calm Calm - N/A   Overcast
12:53 AM 43.0 °F 42.1 °F 97% 30.17 in 0.5 mi Calm Calm - N/A Fog Fog
2:53 AM 46.0 °F 45.0 °F 96% 30.15 in 0.2 mi Calm Calm - N/A Fog Fog
3:53 AM 45.0 °F 45.0 °F 100% 30.15 in 0.2 mi Calm Calm - N/A Fog Fog
4:53 AM 44.1 °F 43.0 °F 96% 30.16 in 0.2 mi Calm Calm - N/A Fog Fog
5:53 AM 44.1 °F 43.0 °F 96% 30.18 in 0.2 mi Calm Calm - N/A Fog Fog
6:53 AM 44.1 °F 44.1 °F 100% 30.18 in 0.2 mi Calm Calm - N/A Fog Fog
7:53 AM 45.0 °F 45.0 °F 100% 30.20 in 0.2 mi Calm Calm - 0.01 in Fog Fog
8:53 AM 46.0 °F 46.0 °F 100% 30.22 in 0.2 mi Calm Calm - N/A Fog Fog
9:53 AM 48.0 °F 48.0 °F 100% 30.24 in 0.2 mi Calm Calm - N/A Fog Fog
10:32 AM 51.8 °F 51.8 °F 100% 30.22 in 1.8 mi Calm Calm - N/A   Overcast
10:36 AM 51.8 °F 51.8 °F 100% 30.21 in 3.0 mi Calm Calm - N/A   Overcast
10:53 AM 53.1 °F 51.1 °F 93% 30.21 in 7.0 mi Calm Calm - N/A   Scattered Clouds
1:53 PM 68.0 °F 48.0 °F 49% 30.12 in 10.0 mi WNW 10.4 mph - N/A   Clear
2:53 PM 69.1 °F 48.9 °F 49% 30.11 in 10.0 mi West 6.9 mph - N/A   Clear
3:53 PM 66.9 °F 48.9 °F 52% 30.11 in 10.0 mi West 6.9 mph - N/A   Clear
4:53 PM 63.0 °F 48.0 °F 58% 30.11 in 10.0 mi Calm Calm - N/A   Clear
5:53 PM 55.9 °F 48.0 °F 75% 30.12 in 10.0 mi Calm Calm - N/A   Clear
6:53 PM 54.0 °F 48.0 °F 80% 30.12 in 10.0 mi Calm Calm - N/A   Clear
7:53 PM 53.1 °F 48.9 °F 86% 30.13 in 10.0 mi Calm Calm - N/A   Clear
8:53 PM 53.1 °F 50.0 °F 89% 30.14 in 10.0 mi Calm Calm - N/A   Clear
9:53 PM 50.0 °F 48.0 °F 93% 30.13 in 10.0 mi Calm Calm - N/A   Scattered Clouds
10:53 PM 51.1 °F 48.9 °F 92% 30.12 in 10.0 mi Calm Calm - N/A   Partly Cloudy
11:31 PM 48.2 °F 48.2 °F 100% 30.11 in 0.8 mi Calm Calm - N/A   Clear
11:43 PM 48.2 °F 48.2 °F 100% 30.11 in 2.5 mi Calm Calm - N/A   Clear
11:50 PM 48.2 °F 46.4 °F 93% 30.10 in 8.0 mi Calm Calm - N/A   Clear
11:53 PM 48.0 °F 48.0 °F 100% 30.10 in 7.0 mi Calm Calm - N/A   Clear